Weather History for KSPB - February, 2013

Change the Weather History Date:

Thursday, February 14, 2013

  Actual Average Record
Temperature  
Mean Temperature 41 °F -  
Max Temperature 48 °F - 61 °F (2015)
Min Temperature 33 °F - 27 °F (2001)
Degree Days  
Heating Degree Days 24    
Month to date heating degree days 316  
Since 1 July heating degree days 3061  
Cooling Degree Days 0    
Month to date cooling degree days 0  
Year to date cooling degree days 0  
Moisture  
Dew Point 39 °F    
Average Humidity 88    
Maximum Humidity 100    
Minimum Humidity 76    
Precipitation  
Precipitation 0.00 in - 0.69 in (2011)
Month to date precipitation 0.30  
Year to date precipitation 2.34  
Sea Level Pressure  
Sea Level Pressure 30.54 in    
Wind  
Wind Speed 0 mph (NW)    
Max Wind Speed 6 mph    
Max Gust Speed 7 mph    
Visibility 10 miles    
Events      
T = Trace of Precipitation, MM = Missing Value Source: NWS Daily Summary

Daily Weather History Graph

Daily Weather History Graph

Search for Another Location

Airport or City:

Trip Planner

Search our weather history database for the weather conditions in past years. The results will help you decide how hot, cold, wet, or windy it might be!

Date:

Astronomy

Feb. 14, 2013 Rise Set
Actual Time 7:14 AM PST 5:37 PM PST
Civil Twilight 6:44 AM PST 6:07 PM PST
Nautical Twilight 6:09 AM PST 6:42 PM PST
Astronomical Twilight 5:34 AM PST 7:17 PM PST
Moon 9:01 AM PST (2/14) 11:05 PM PST (2/14)
Length of Visible Light 11h 23m
Length of Day
10h 22m
Waxing Crescent, 22% of the Moon is Illuminated
Feb 14
Waxing Crescent
Feb 17
First Quarter
Feb 25
Full
Mar 4
Last Quarter
Mar 11
New

Hourly Weather History & Observations

Time (PST) Temp. Windchill Dew Point Humidity Pressure Visibility Wind Dir Wind Speed Gust Speed Precip Events Conditions
12:53 AM 37.0 °F 34.5 °F 36.0 °F 96% 30.54 in 10.0 mi NNW 3.5 mph - N/A   Overcast
1:53 AM 37.9 °F - 37.0 °F 97% 30.54 in 10.0 mi Calm Calm - N/A   Overcast
2:53 AM 36.0 °F - 35.1 °F 97% 30.54 in 10.0 mi Calm Calm - N/A   Mostly Cloudy
3:53 AM 35.1 °F - 34.0 °F 96% 30.53 in 8.0 mi Calm Calm - N/A   Clear
4:53 AM 34.0 °F - 33.1 °F 96% 30.54 in 7.0 mi Calm Calm - N/A   Partly Cloudy
5:53 AM 35.1 °F 32.2 °F 33.1 °F 92% 30.55 in 10.0 mi West 3.5 mph - N/A   Mostly Cloudy
6:53 AM 35.1 °F - 34.0 °F 96% 30.56 in 10.0 mi Calm Calm - N/A   Overcast
7:53 AM 36.0 °F - 35.1 °F 97% 30.55 in 10.0 mi Calm Calm - N/A   Overcast
8:53 AM 39.0 °F - 37.0 °F 93% 30.57 in 10.0 mi Calm Calm - N/A   Overcast
9:53 AM 42.1 °F - 37.9 °F 85% 30.57 in 10.0 mi Calm Calm - N/A   Overcast
10:53 AM 42.1 °F - 37.9 °F 85% 30.57 in 10.0 mi Calm Calm - N/A   Overcast
11:53 AM 44.1 °F - 37.9 °F 79% 30.58 in 10.0 mi Calm Calm - N/A   Overcast
12:53 PM 45.0 °F - 39.0 °F 80% 30.57 in 10.0 mi Calm Calm - N/A   Overcast
1:53 PM 46.0 °F - 39.9 °F 79% 30.56 in 10.0 mi Calm Calm - N/A   Overcast
2:08 PM 44.6 °F - 39.2 °F 81% 30.56 in 10.0 mi Calm Calm - N/A   Overcast
2:53 PM 46.0 °F - 41.0 °F 83% 30.55 in 10.0 mi Calm Calm - N/A   Overcast
3:10 PM 46.4 °F 44.3 °F 41.0 °F 81% 30.55 in 10.0 mi NW 4.6 mph - N/A   Overcast
3:29 PM 46.4 °F 45.2 °F 41.0 °F 81% 30.55 in 10.0 mi NW 3.5 mph - N/A   Overcast
3:53 PM 46.9 °F - 41.0 °F 80% 30.54 in 10.0 mi Calm Calm - N/A   Overcast
4:53 PM 48.0 °F - 42.1 °F 80% 30.54 in 10.0 mi Calm Calm - N/A   Overcast
5:05 PM 48.2 °F - 42.8 °F 82% 30.54 in 10.0 mi Calm Calm - N/A   Overcast
5:53 PM 46.9 °F - 42.1 °F 83% 30.53 in 10.0 mi Calm Calm - N/A   Overcast
6:02 PM 46.4 °F - 42.8 °F 87% 30.53 in 10.0 mi Calm Calm - N/A   Overcast
6:24 PM 46.4 °F - 42.8 °F 87% 30.53 in 10.0 mi Calm Calm - N/A   Overcast
6:53 PM 46.0 °F 44.8 °F 42.1 °F 86% 30.53 in 10.0 mi WSW 3.5 mph - N/A   Overcast
7:53 PM 45.0 °F - 41.0 °F 86% 30.52 in 10.0 mi Calm Calm - N/A   Overcast
8:21 PM 44.6 °F 43.1 °F 41.0 °F 87% 30.52 in 10.0 mi NNW 3.5 mph - N/A   Scattered Clouds
8:30 PM 42.8 °F - 41.0 °F 93% 30.52 in 10.0 mi Calm Calm - N/A   Mostly Cloudy
8:53 PM 43.0 °F - 41.0 °F 93% 30.53 in 10.0 mi Calm Calm - N/A   Overcast
9:53 PM 44.1 °F - 42.1 °F 93% 30.53 in 10.0 mi Calm Calm - N/A   Overcast
10:53 PM 44.1 °F - 42.1 °F 93% 30.53 in 10.0 mi Calm Calm - N/A   Overcast
11:53 PM 45.0 °F - 42.1 °F 90% 30.51 in 10.0 mi Calm Calm - N/A   Overcast